Back to catalog

COSMOS 397 DEB

AliveUNKNOWN
NORAD 5018·DEBRIS·🇷🇺 Russia

Launched Feb 25, 1971 from Baikonur Cosmodrome

Loading…

Next Passes

TLE

Source: Space-Track
1 05018U 71015M   26229.71931730  .00000058  00000-0  63810-4 0  9995
2 05018  65.7148 350.1208 0999673 184.1572 175.0653 12.80564456586970

Track COSMOS 397 DEB in real time with AllMySat

Download on the App Store